Location: Coupvray
(48.8929°N, 2.7967°E)
Time: 21:53:14
(UTC+00:00)

Cosmos 1241 Rocket - Pass Details

Date: 07 November 2020
Orbit: 929 x 1018 km, 65.8° (Epoch: 30 November)

Event Time Altitude Azimuth Distance (km) Brightness Sun altitude
Rises 19:54:20 0° 317° (NW) 3,731 8.3 -35.5°
Reaches altitude 10° 19:57:30 10° 331° (NNW) 2,791 7.3 -36.0°
Enters shadow 20:00:46 21° 358° (N) 2,102 6.3 -36.5°
